Probability
0 0 0 0 0 0 0 0 0 0 0 0 0 0 0 0 0 0 0 0 1 2 2 2 1 1 1 1 1 2 1 2 3 4 3 2 1 1 0 0 1 2 3
0 0 0 0 0 0 0 0 0 0 0 0 0 0 0 0 0 0 0 0 0 1 2 2 1 2 3 3 3 3 3 3 3 4 3 3 2 2 1 1 1 2 2
0 0 0 0 0 0 0 0 0 0 0 0 0 0 0 0 0 0 0 0 0 0 1 2 3 5 7 6 6 7 8 6 5 4 3 3 3 3 3 3 3 3 3
0 0 0 0 0 0 1 1 1 1 1 0 0 0 0 0 0 0 0 0 0 0 0 1 4 6 8 8 8 9 10 10 7 4 3 4 3 4 5 5 6 5 5
0 0 0 0 0 0 1 2 3 2 2 1 0 0 0 0 0 0 0 0 0 0 0 0 2 4 5 6 6 7 8 8 6 4 3 3 3 3 4 5 6 6 6
0 0 0 0 0 1 2 3 3 3 2 1 0 0 0 0 0 0 0 0 0 0 0 0 0 1 1 2 3 5 5 5 5 4 2 2 2 1 2 3 4 6 6
0 0 0 0 0 1 2 3 3 2 1 1 0 0 0 0 0 0 0 0 0 0 0 0 0 0 0 0 1 2 3 4 4 3 2 2 2 1 1 1 2 4 5
0 0 0 0 0 1 2 2 2 2 1 0 0 0 0 0 0 0 0 0 0 0 0 0 0 0 0 0 0 1 2 4 4 3 3 2 2 1 1 1 1 2 4
0 0 0 0 0 1 1 1 1 1 1 0 0 0 0 0 0 0 0 0 0 0 0 0 0 0 0 0 0 0 0 2 3 3 3 3 2 1 1 1 1 2 3
0 0 0 0 0 1 1 0 0 0 0 1 1 0 0 0 0 0 0 0 0 0 0 0 0 0 0 0 0 0 0 0 1 3 5 5 3 3 3 1 1 2 3
0 0 0 1 1 2 2 1 1 1 1 1 1 0 0 0 0 0 0 0 0 0 0 0 0 0 0 0 0 0 0 0 0 2 4 6 6 5 5 3 1 2 3
0 0 1 2 2 3 2 2 2 2 1 1 1 0 0 0 0 0 1 1 0 0 0 0 0 0 0 0 0 0 1 1 0 0 2 5 6 5 5 3 2 1 1
0 0 1 3 3 3 3 3 3 3 1 0 0 0 0 0 0 1 2 2 1 0 0 0 0 0 0 0 1 1 1 1 0 0 1 3 4 4 3 3 3 1 0
0 1 2 3 3 3 3 3 3 3 2 1 0 0 0 0 0 1 2 3 1 0 0 0 0 0 0 0 0 1 1 1 0 0 0 1 2 3 3 3 2 1 1
1 2 3 3 3 3 3 3 3 3 3 1 1 0 0 0 0 1 3 3 2 0 0 0 0 0 0 0 0 0 1 1 0 0 0 0 1 1 2 2 1 1 0
2 3 3 3 3 3 3 3 3 3 3 2 2 1 1 1 1 1 2 2 1 0 0 0 0 0 0 0 0 0 1 1 0 0 0 0 0 0 1 1 0 0 0
2 3 3 3 3 2 2 2 3 3 2 3 3 2 2 2 1 1 2 1 1 1 1 0 0 0 0 0 0 0 0 0 0 0 0 0 0 0 0 0 0 0 0
3 4 4 3 2 2 2 3 3 3 3 3 3 3 3 3 3 2 2 2 2 2 2 1 0 0 0 1 1 1 0 0 0 0 0 0 0 0 0 0 0 0 0
5 5 5 3 3 3 3 3 3 3 3 3 3 3 3 3 3 3 3 3 3 3 3 2 1 0 1 2 4 4 1 0 0 0 0 0 0 0 0 0 0 0 0
6 6 4 3 3 3 3 3 3 3 3 3 3 3 3 3 3 3 3 3 3 3 3 2 1 0 1 3 5 5 2 0 0 0 1 0 0 1 1 0 0 0 0
7 6 4 3 3 3 3 3 3 3 3 3 3 3 3 3 2 2 2 3 3 3 3 2 0 0 1 2 4 5 4 2 0 1 2 1 1 3 3 1 1 0 0
9 8 5 3 3 3 3 3 3 3 3 3 3 3 3 2 1 1 1 1 2 2 2 2 1 0 0 1 3 4 4 2 0 1 1 2 3 5 5 3 2 0 0
10 8 5 3 3 2 2 2 2 2 3 3 3 3 3 2 1 1 2 1 1 1 2 2 1 0 0 2 3 3 3 1 0 1 2 2 3 5 6 4 2 0 0
9 8 6 4 3 1 1 1 1 2 2 2 2 2 2 1 0 1 1 1 1 2 2 1 0 0 1 2 3 3 2 1 0 1 2 2 2 3 4 3 1 0 0
9 9 8 7 5 3 1 0 0 1 1 1 1 1 1 0 0 0 0 1 1 2 1 0 0 1 1 1 2 3 2 0 0 1 1 1 1 1 1 1 1 1 1
10 9 9 9 8 5 2 0 0 0 0 0 0 0 0 0 0 0 0 0 1 1 0 0 0 1 0 0 1 2 1 0 0 1 1 1 0 0 0 1 2 3 3
Wind_Speed
0 1 1 1 1 1 1 1 1 0 0 0 1 1 1 1 1 2 2 4 5 5 5 5 5 6 6 7 8 9 8 8 8 8 8 8 8 8 9 9 9 9 9
1 0 0 1 1 0 0 0 0 0 0 0 0 1 1 1 1 2 2 2 4 4 5 5 5 6 6 7 7 7 7 7 7 8 8 9 8 8 8 9 9 9 8
1 0 0 0 1 0 0 0 0 0 0 0 0 1 1 1 1 1 1 1 2 3 4 4 5 5 6 6 6 7 7 6 6 7 7 8 9 9 8 8 9 9 8
0 1 0 1 0 0 0 0 0 0 0 0 0 1 0 0 1 1 1 1 1 2 3 4 5 5 5 5 5 6 7 7 6 7 7 7 8 8 8 8 9 9 9
1 1 0 1 0 1 0 0 0 0 0 0 0 0 0 1 1 1 1 2 2 2 2 3 4 4 5 5 5 6 6 7 7 7 8 8 8 7 8 8 8 8 8
0 1 0 0 0 0 0 0 1 1 1 1 0 0 1 1 1 1 2 2 2 2 2 2 2 3 4 5 5 6 6 7 7 7 8 9 9 8 8 8 8 8 8
0 1 0 0 0 1 1 1 1 1 0 0 1 1 1 0 1 1 1 1 1 2 2 2 2 2 2 4 5 6 6 6 6 7 7 8 8 8 9 9 9 9 9
1 1 1 1 0 0 0 1 1 1 0 1 1 0 1 2 2 1 0 1 1 1 1 2 2 2 2 2 2 4 5 5 6 6 7 8 8 8 8 9 9 9 9
1 1 1 1 1 1 1 2 2 2 2 1 1 2 2 2 1 1 1 0 0 0 1 1 2 3 3 2 2 4 5 5 5 6 7 7 8 7 8 9 9 9 9
2 1 1 1 1 1 2 2 2 2 2 2 1 1 2 2 1 1 1 1 1 1 1 1 2 2 3 2 3 4 5 5 5 6 6 6 7 8 8 9 9 9 9
2 1 1 1 1 1 2 2 1 2 2 2 2 2 2 1 2 2 2 2 1 1 1 1 1 2 2 2 3 4 5 5 4 5 5 5 6 6 7 8 9 9 9
1 2 1 1 1 1 2 2 2 2 2 3 2 2 2 2 3 3 3 2 2 2 1 1 1 2 2 2 4 4 4 4 4 4 4 4 5 5 5 6 7 8 8
2 2 2 1 2 2 2 2 2 2 2 3 3 2 2 3 2 2 2 2 2 1 1 1 2 1 2 2 2 4 4 4 4 4 4 4 4 5 5 6 6 7 7
3 2 2 1 2 2 1 1 1 2 1 2 2 2 2 2 2 3 3 2 1 1 1 2 1 1 2 2 2 3 2 3 3 3 3 4 4 4 4 5 5 5 5
2 2 1 1 1 1 1 1 1 2 1 2 2 2 2 2 2 2 2 3 3 2 3 2 1 1 1 1 2 1 2 1 2 2 2 3 3 3 3 3 4 4 3
2 1 1 1 1 2 1 1 1 1 1 2 2 2 2 2 1 2 2 2 3 3 3 2 2 2 2 1 1 1 1 0 0 1 1 2 2 3 3 3 3 4 4
2 2 2 2 1 1 1 1 2 2 2 2 2 1 2 2 1 1 1 1 2 2 3 2 1 1 1 1 2 1 1 1 1 1 1 1 2 2 2 3 3 3 4
1 1 1 1 1 1 1 1 2 2 2 2 2 2 2 2 2 2 1 2 2 2 3 3 1 1 2 1 1 1 1 1 1 1 1 0 1 2 2 2 3 3 3
1 1 0 1 1 2 2 2 2 2 2 2 2 2 3 2 2 2 2 2 2 1 2 2 2 1 1 1 1 1 1 1 1 1 1 0 0 1 2 2 2 2 3
1 1 1 1 2 2 2 2 2 2 2 2 2 3 3 3 3 3 2 2 2 2 1 1 1 1 1 2 1 1 1 1 1 1 1 1 0 1 1 1 2 2 2
2 1 1 1 2 1 1 1 1 1 1 2 2 3 3 3 4 3 2 3 3 2 2 1 2 1 2 1 2 1 1 1 1 1 1 1 1 1 1 1 1 2 2
1 1 1 1 1 2 2 2 1 1 1 1 2 3 3 3 3 3 3 4 4 4 4 3 2 3 4 3 2 2 1 1 1 1 1 1 1 1 1 1 0 1 2
1 1 1 1 2 2 2 2 1 1 1 1 2 2 2 2 2 1 2 3 3 4 5 4 4 5 4 4 3 2 2 2 2 1 1 1 1 1 1 1 0 1 1
1 1 2 2 2 3 3 2 2 0 1 1 2 2 2 2 2 2 2 2 2 3 4 4 4 4 4 3 4 3 3 1 0 0 1 1 1 2 1 1 1 0 0
1 2 2 2 2 3 3 2 1 1 1 2 2 1 2 2 3 3 3 2 2 2 2 2 2 2 2 2 2 2 2 2 1 1 0 1 1 2 2 1 1 1 0
2 2 2 2 3 3 3 2 1 1 1 1 2 2 1 1 1 3 3 3 3 2 1 1 1 1 1 1 3 3 3 3 1 1 1 1 1 1 1 1 1 1 1
Wind_Direction
36 1 6 16 1 16 21 13 17 33 353 291 259 236 275 268 240 232 235 236 239 231 224 229 232 233 229 228 223 219 214 213 210 205 205 206 205 204 207 203 199 200 199
174 175 348 354 349 340 287 71 16 16 347 312 283 235 241 252 235 241 241 245 247 242 232 235 239 243 236 228 222 216 212 214 212 208 207 206 204 205 206 202 199 200 202
184 173 138 334 309 302 34 67 42 30 358 35 283 250 232 242 231 232 249 261 262 253 240 241 247 249 240 229 218 210 207 210 211 207 207 207 207 208 211 207 206 204 203
173 141 146 278 269 103 90 116 70 31 0 13 296 291 282 263 265 253 249 258 258 255 253 252 248 244 238 234 224 216 209 211 212 210 207 205 206 208 208 209 208 207 205
204 168 200 271 201 97 96 240 101 160 190 249 247 263 257 249 262 258 248 248 246 250 252 258 254 249 247 246 240 233 223 216 215 210 210 211 209 207 209 210 212 212 211
212 169 200 302 106 114 189 190 171 173 191 207 228 319 257 238 228 232 236 230 224 236 243 257 268 270 261 261 253 245 237 228 222 217 213 216 215 212 212 212 213 213 213
234 175 240 52 132 180 223 207 159 143 159 159 94 357 342 294 256 253 238 230 231 229 230 250 259 266 272 273 266 255 245 235 227 221 218 219 220 216 213 214 215 215 214
247 219 201 213 179 171 279 235 165 148 173 150 149 107 338 335 338 340 229 217 249 222 226 246 246 250 257 256 265 254 249 243 234 227 221 217 218 216 213 213 214 215 215
243 240 214 201 205 188 215 228 193 180 194 219 176 164 168 235 298 317 289 250 251 219 248 255 247 249 245 245 257 256 247 245 237 227 221 219 216 217 218 217 216 216 216
256 242 228 219 223 212 221 235 213 195 182 217 219 211 202 182 190 285 315 295 271 250 251 254 254 251 245 239 247 252 249 244 240 237 230 222 218 219 220 221 220 220 221
279 267 236 228 241 238 237 242 227 206 201 211 210 199 200 207 201 199 261 299 311 277 262 252 251 249 245 242 247 251 251 243 238 240 236 228 222 220 219 220 221 223 224
283 277 253 246 251 250 247 243 234 221 228 227 223 216 204 200 200 195 219 251 274 280 274 257 256 257 249 252 256 258 247 240 230 231 234 230 223 216 215 218 221 225 226
262 268 263 253 253 251 247 241 239 241 237 227 224 230 223 222 201 189 188 217 252 289 298 276 256 261 269 266 265 257 246 238 225 225 227 224 223 218 218 217 221 224 226
243 251 244 244 252 255 260 244 246 257 249 235 228 220 225 227 211 199 189 179 219 274 277 276 286 267 282 274 285 257 253 241 230 228 221 218 219 214 215 212 215 220 223
243 239 237 247 262 267 264 242 256 274 263 245 234 226 225 227 210 217 202 190 187 224 256 257 268 290 297 281 323 277 246 244 236 244 228 217 208 197 197 196 197 193 191
246 234 246 254 263 267 264 246 256 257 241 250 239 229 242 242 225 207 204 208 203 204 240 249 244 273 292 311 344 298 279 358 280 251 235 209 195 190 183 184 183 179 180
231 228 241 251 257 261 259 251 258 244 241 258 261 237 247 244 232 223 209 205 201 195 224 265 253 271 277 310 329 325 308 305 324 352 260 208 194 196 191 185 180 172 180
250 233 224 237 254 261 255 243 256 260 242 254 265 265 265 253 238 230 210 210 209 204 201 235 258 286 286 294 311 311 322 323 312 0 340 207 195 191 185 180 179 176 182
263 261 228 239 260 269 260 247 239 244 243 244 246 246 253 242 241 231 218 217 209 202 193 204 250 259 278 286 315 333 341 315 302 326 347 308 214 183 172 171 181 184 194
232 255 260 256 263 270 267 260 255 247 251 253 249 247 245 236 236 227 217 209 187 174 173 191 232 258 266 272 248 268 311 324 309 322 343 341 303 199 173 176 199 198 200
233 232 247 270 275 265 269 281 265 251 262 277 274 262 251 243 237 225 217 197 178 178 183 192 216 231 249 244 250 244 249 288 322 338 333 331 314 281 259 254 233 219 205
247 228 243 260 274 281 307 303 281 259 257 262 281 285 271 255 240 221 213 200 186 185 193 198 216 225 236 236 243 236 219 228 262 289 280 302 327 283 280 247 293 169 178
258 257 255 252 267 290 310 316 307 219 239 258 265 280 281 271 243 214 212 215 216 214 208 203 208 226 227 224 215 218 211 215 242 244 232 266 286 276 276 299 325 148 157
268 249 256 248 255 279 298 307 312 229 251 266 266 262 261 264 237 196 197 207 223 231 228 221 221 229 229 228 213 204 205 206 260 232 207 250 277 276 283 287 340 79 119
278 279 270 256 259 280 291 297 327 247 271 283 281 280 264 245 237 198 189 203 239 265 245 222 223 222 213 198 183 159 168 179 246 266 228 231 270 286 290 289 324 7 33
252 268 283 270 260 270 289 294 291 212 248 273 290 292 281 234 226 194 192 195 220 251 229 129 72 51 110 157 167 184 186 186 194 230 207 200 257 288 287 285 297 307 295